Weather History for Blacksburg, VA

Change the Weather History Date:

Monday, March 4, 2013

  Actual Average Record
Temperature  
Mean Temperature 31 °F 38 °F  
Max Temperature 42 °F 49 °F 75 °F (1974)
Min Temperature 20 °F 27 °F 4 °F (1980)
Degree Days  
Heating Degree Days 34 27  
Month to date heating degree days 145 109  
Since 1 July heating degree days 4005 4157  
Cooling Degree Days 0 0  
Month to date cooling degree days 0 0  
Year to date cooling degree days 0 0  
Moisture  
Dew Point 17 °F    
Average Humidity 56    
Maximum Humidity 81    
Minimum Humidity 30    
Precipitation  
Precipitation T in 0.10 in 1.24 in (1993)
Month to date precipitation 0.01 0.39  
Year to date precipitation 9.11 6.28  
Snow  
Snow T in - - ()
Month to date snowfall 0.1  
Since 1 July snowfall 17.7  
Snow Depth 0.00 in    
Sea Level Pressure  
Sea Level Pressure 30.02 in    
Wind  
Wind Speed 9 mph (WNW)    
Max Wind Speed 18 mph    
Max Gust Speed 30 mph    
Visibility 10 miles    
Events Snow    
T = Trace of Precipitation, MM = Missing Value Source: NWS Daily Summary

Daily Weather History Graph

Daily Weather History Graph

Search for Another Location

Airport:

Trip Planner

Search our weather history database for the weather conditions in past years. The results will help you decide how hot, cold, wet, or windy it might be!

Date:

Astronomy

Mar. 04, 2013 Rise Set
Actual Time 6:48 AM EST 6:18 PM EST
Civil Twilight 6:22 AM EST 6:44 PM EST
Nautical Twilight 5:52 AM EST 7:15 PM EST
Astronomical Twilight 5:21 AM EST 7:45 PM EST
Moon 12:50 AM EST (3/4) 11:04 AM EST (3/4)
Length of Visible Light 12h 22m
Length of Day
11h 30m
Waning Gibbous, 52% of the Moon is Illuminated
Mar 4
Waning Gibbous
Mar 4
Last Quarter
Mar 11
New
Mar 19
First Quarter
Mar 27
Full

Hourly Weather History & Observations

Time (EST) Temp. Windchill Dew Point Humidity Pressure Visibility Wind Dir Wind Speed Gust Speed Precip Events Conditions
12:15 AM 24.8 °F 14.0 °F 19.4 °F 80% 29.94 in 10.0 mi WNW 11.5 mph 17.3 mph N/A Snow Light Snow
12:35 AM 24.8 °F 13.4 °F 19.4 °F 80% 29.95 in 10.0 mi WNW 12.7 mph 18.4 mph N/A   Overcast
12:55 AM 24.8 °F 14.6 °F 19.4 °F 80% 29.95 in 10.0 mi West 10.4 mph 20.7 mph N/A Snow Light Snow
1:15 AM 24.8 °F 11.5 °F 17.6 °F 74% 29.95 in 10.0 mi NW 17.3 mph 21.9 mph N/A   Overcast
1:35 AM 24.8 °F 12.9 °F 17.6 °F 74% 29.96 in 10.0 mi WNW 13.8 mph 23.0 mph N/A   Overcast
1:55 AM 24.8 °F 13.4 °F 17.6 °F 74% 29.96 in 10.0 mi WNW 12.7 mph 21.9 mph N/A Snow Light Snow
2:15 AM 24.8 °F 11.1 °F 19.4 °F 80% 29.96 in 10.0 mi WNW 18.4 mph 25.3 mph N/A Snow Light Snow
2:35 AM 24.8 °F 12.4 °F 15.8 °F 69% 29.97 in 10.0 mi NW 15.0 mph 24.2 mph N/A   Overcast
2:55 AM 24.8 °F 12.4 °F 17.6 °F 74% 29.97 in 2.5 mi WNW 15.0 mph 25.3 mph N/A Snow Light Snow
3:15 AM 24.8 °F 10.3 °F 17.6 °F 74% 29.97 in 10.0 mi NW 20.7 mph 27.6 mph N/A Snow Light Snow
3:35 AM 24.8 °F 13.4 °F 17.6 °F 74% 29.97 in 10.0 mi NW 12.7 mph 25.3 mph N/A Snow Light Snow
3:55 AM 24.8 °F 13.4 °F 15.8 °F 69% 29.97 in 10.0 mi WNW 12.7 mph 23.0 mph N/A Snow Light Snow
4:15 AM 24.8 °F 12.4 °F 17.6 °F 74% 29.97 in 10.0 mi NW 15.0 mph 23.0 mph N/A Snow Light Snow
4:35 AM 24.8 °F 12.4 °F 17.6 °F 74% 29.98 in 10.0 mi NW 15.0 mph 20.7 mph N/A   Overcast
4:55 AM 24.8 °F 11.1 °F 15.8 °F 69% 29.98 in 10.0 mi NW 18.4 mph 29.9 mph N/A Snow Light Snow
5:15 AM 24.8 °F 11.1 °F 17.6 °F 74% 29.99 in 10.0 mi NW 18.4 mph 24.2 mph N/A   Overcast
5:35 AM 24.8 °F 11.9 °F 17.6 °F 74% 30.00 in 10.0 mi WNW 16.1 mph 21.9 mph N/A Snow Light Snow
5:55 AM 24.8 °F 13.4 °F 17.6 °F 74% 30.00 in 10.0 mi WNW 12.7 mph 21.9 mph N/A Snow Light Snow
6:15 AM 23.0 °F 10.6 °F 15.8 °F 74% 30.01 in 10.0 mi WNW 13.8 mph 25.3 mph N/A   Mostly Cloudy
6:35 AM 23.0 °F 11.1 °F 15.8 °F 74% 30.02 in 10.0 mi WNW 12.7 mph 27.6 mph N/A   Scattered Clouds
6:55 AM 23.0 °F 9.2 °F 15.8 °F 74% 30.02 in 10.0 mi NW 17.3 mph 26.5 mph N/A   Scattered Clouds
7:15 AM 24.8 °F 14.6 °F 17.6 °F 74% 30.03 in 10.0 mi WNW 10.4 mph 21.9 mph N/A   Clear
7:35 AM 24.8 °F 14.0 °F 17.6 °F 74% 30.03 in 10.0 mi WNW 11.5 mph 17.3 mph N/A   Clear
7:55 AM 24.8 °F 14.0 °F 17.6 °F 74% 30.04 in 10.0 mi WNW 11.5 mph - N/A   Clear
8:15 AM 26.6 °F 16.8 °F 17.6 °F 69% 30.05 in 10.0 mi WNW 10.4 mph 17.3 mph N/A   Clear
8:35 AM 26.6 °F 16.2 °F 15.8 °F 64% 30.05 in 10.0 mi WNW 11.5 mph 20.7 mph N/A   Clear
8:55 AM 26.6 °F 16.2 °F 15.8 °F 64% 30.06 in 10.0 mi WNW 11.5 mph 18.4 mph N/A   Clear
9:15 AM 28.4 °F 19.1 °F 15.8 °F 59% 30.06 in 10.0 mi NW 10.4 mph 21.9 mph N/A   Clear
9:35 AM 28.4 °F 18.0 °F 15.8 °F 59% 30.07 in 10.0 mi WNW 12.7 mph 23.0 mph N/A   Clear
9:55 AM 30.2 °F 21.3 °F 17.6 °F 60% 30.07 in 10.0 mi West 10.4 mph 19.6 mph N/A   Clear
10:15 AM 30.2 °F 21.3 °F 17.6 °F 60% 30.07 in 10.0 mi West 10.4 mph 18.4 mph N/A   Clear
10:35 AM 30.2 °F 21.3 °F 17.6 °F 60% 30.07 in 10.0 mi WNW 10.4 mph 18.4 mph N/A   Clear
10:55 AM 32.0 °F 23.0 °F 17.6 °F 55% 30.06 in 10.0 mi West 11.5 mph 21.9 mph N/A   Clear
11:15 AM 33.8 °F 24.3 °F 17.6 °F 52% 30.06 in 10.0 mi WNW 13.8 mph 18.4 mph N/A   Clear
11:35 AM 33.8 °F 25.8 °F 17.6 °F 52% 30.05 in 10.0 mi WNW 10.4 mph 18.4 mph N/A   Clear
11:55 AM 35.6 °F 28.6 °F 17.6 °F 48% 30.05 in 10.0 mi WNW 9.2 mph 16.1 mph N/A   Clear
12:15 PM 35.6 °F 28.0 °F 17.6 °F 48% 30.05 in 10.0 mi West 10.4 mph 19.6 mph N/A   Clear
12:35 PM 37.4 °F 30.3 °F 17.6 °F 45% 30.05 in 10.0 mi West 10.4 mph 21.9 mph N/A   Clear
12:55 PM 37.4 °F 30.8 °F 17.6 °F 45% 30.05 in 10.0 mi WNW 9.2 mph 16.1 mph N/A   Clear
1:15 PM 39.2 °F 33.6 °F 17.6 °F 42% 30.04 in 10.0 mi WNW 8.1 mph 17.3 mph N/A   Clear
1:55 PM 41.0 °F 34.7 °F 17.6 °F 39% 30.02 in 10.0 mi West 10.4 mph 17.3 mph N/A   Clear
2:15 PM 42.8 °F 37.5 °F 17.6 °F 36% 30.01 in 10.0 mi WNW 9.2 mph - N/A   Clear
2:35 PM 42.8 °F 37.0 °F 17.6 °F 36% 30.01 in 10.0 mi WNW 10.4 mph - N/A   Clear
2:55 PM 44.6 °F 38.4 °F 17.6 °F 34% 30.01 in 10.0 mi WNW 12.7 mph 18.4 mph N/A   Clear
3:15 PM 42.8 °F 36.6 °F 15.8 °F 34% 30.01 in 10.0 mi WNW 11.5 mph 18.4 mph N/A   Clear
3:35 PM 44.6 °F 39.2 °F 15.8 °F 31% 30.01 in 10.0 mi WNW 10.4 mph 18.4 mph N/A   Clear
3:55 PM 44.6 °F 39.2 °F 15.8 °F 31% 30.00 in 10.0 mi West 10.4 mph - N/A   Clear
4:15 PM 44.6 °F 40.2 °F 15.8 °F 31% 30.00 in 10.0 mi WNW 8.1 mph 16.1 mph N/A   Clear
4:35 PM 44.6 °F 40.7 °F 15.8 °F 31% 30.01 in 10.0 mi WNW 6.9 mph - N/A   Clear
4:55 PM 44.6 °F 41.4 °F 15.8 °F 31% 30.01 in 10.0 mi WNW 5.8 mph - N/A   Clear
5:15 PM 42.8 °F 37.5 °F 14.0 °F 31% 30.02 in 10.0 mi WNW 9.2 mph - N/A   Clear
5:35 PM 42.8 °F 38.0 °F 14.0 °F 31% 30.02 in 10.0 mi WNW 8.1 mph - N/A   Clear
5:55 PM 42.8 °F 40.1 °F 14.0 °F 31% 30.02 in 10.0 mi WNW 4.6 mph - N/A   Clear
6:15 PM 39.2 °F 37.0 °F 15.8 °F 39% 30.01 in 10.0 mi WNW 3.5 mph - N/A   Clear
6:35 PM 35.6 °F - 15.8 °F 44% 30.02 in 10.0 mi Calm Calm - N/A   Clear
6:55 PM 35.6 °F 32.8 °F 15.8 °F 44% 30.03 in 10.0 mi WSW 3.5 mph - N/A   Clear
7:15 PM 33.8 °F 30.8 °F 15.8 °F 48% 30.04 in 10.0 mi WSW 3.5 mph - N/A   Clear
7:35 PM 33.8 °F - 17.6 °F 52% 30.05 in 10.0 mi Calm Calm - N/A   Clear
7:55 PM 33.8 °F - 15.8 °F 48% 30.05 in 10.0 mi Calm Calm - N/A   Clear
8:15 PM 32.0 °F - 15.8 °F 51% 30.04 in 10.0 mi Calm Calm - N/A   Clear
8:35 PM 30.2 °F - 17.6 °F 60% 30.04 in 10.0 mi Calm Calm - N/A   Clear
8:55 PM 28.4 °F - 17.6 °F 64% 30.04 in 10.0 mi Calm Calm - N/A   Clear
9:15 PM 28.4 °F - 17.6 °F 64% 30.05 in 10.0 mi Calm Calm - N/A   Clear
9:35 PM 28.4 °F - 17.6 °F 64% 30.05 in 10.0 mi Calm Calm - N/A   Clear
9:55 PM 30.2 °F - 17.6 °F 60% 30.05 in 10.0 mi Calm Calm - N/A   Clear
10:15 PM 32.0 °F - 15.8 °F 51% 30.04 in 10.0 mi Calm Calm - N/A   Clear
10:35 PM 30.2 °F - 17.6 °F 60% 30.04 in 10.0 mi Calm Calm - N/A   Clear
10:55 PM 30.2 °F - 19.4 °F 64% 30.03 in 10.0 mi Calm Calm - N/A   Clear
11:15 PM 30.2 °F - 19.4 °F 64% 30.03 in 10.0 mi Calm Calm - N/A   Mostly Cloudy
11:35 PM 30.2 °F - 21.2 °F 69% 30.03 in 10.0 mi Calm Calm - N/A   Overcast
11:55 PM 32.0 °F - 24.8 °F 75% 30.02 in 10.0 mi Calm Calm - N/A   Overcast